Regional Weather Roundup
Issued by NWS

Home | Current Version | Previous Version | Graphics & Text | Print | Product List | Glossary On
Versions: 1 2 3 4 5 6 7 8 9 10 11 12 13 14 15 16 17 18 19 20 21 22 23 24 25 26 27 28 29 30 31 32 33 34 35 36 37 38 39 40 41 42 43 44 45 46 47 48 49 50
000
ASUS43 KIND 300409
RWRIN

WEATHER ROUNDUP FOR INDIANA
NATIONAL WEATHER SERVICE INDIANAPOLIS IN
1200 AM EDT MON MAY 30 2016

NOTE: "FAIR" INDICATES FEW OR NO CLOUDS BELOW 12,000 FEET WITH NO
SIGNIFICANT WEATHER AND/OR OBSTRUCTIONS TO VISIBILITY.

* - STATION DOES NOT REPORT WEATHER SUCH AS PRECIPITATION OR FOG.

+ - STATION NOT QUALITY CONTROLLED BY THE NATIONAL WEATHER SERVICE.
    USE DATA WITH CAUTION...ESPECIALLY DEWPOINT AND RELATIVE
    HUMIDITY OBSERVATIONS.

INZ001>003-010>013-019-020-300500-
NORTHWEST INDIANA

CITY           SKY/WX    TMP DP  RH WIND       PRES   REMARKS
GARY /AIRPORT/ CLEAR     67  64  91 SW3       30.01R
KNOX *+        CLEAR     64  48  55 CALM      30.01R
LA PORTE +     CLEAR     70  57  62 CALM      30.01S
MICHIGAN CITY+ CLEAR     61  59  94 CALM      30.01S
MONTICELLO +   CLEAR     69  51  52 CALM      30.02R
RENSSELAER +   CLEAR     66  59  77 CALM      30.03R
VALPARAISO     CLEAR     66  57  72 W5        30.02R

$$

LMZ046-743>745-300500-
SOUTHERN LAKE MICHIGAN

STATION/POSITION TIME  TEMP    WIND        PRES    WAVE
                       AIR SEA DIR/SP/G            HT
                 (UTC) (F)     (DEG/KT/KT) (MB)    (FT)
BURNS HARBOR     0400   68     240/  6/  8 1016.3S
MICHIGAN CITY    0300   68     220/  9/ 11   N/A
5NW MICH CITY    0400   62 59  230/  4/  4   N/A     1

$$

INZ004-005-014>016-021>024-300500-
NORTH CENTRAL INDIANA

CITY           SKY/WX    TMP DP  RH WIND       PRES   REMARKS
GOSHEN         CLEAR     62  57  83 S3        30.01R
LOGANSPORT +   CLEAR     68  54  60 W5        30.03R
PERU/GRISSOM   CLEAR     68  56  66 W5        30.02R
ROCHESTER +    CLEAR     70  57  64 CALM      30.02S
SOUTH BEND     CLEAR     63  56  78 W3        30.01R
WARSAW +       CLEAR     63  57  82 CALM      30.02R

$$

INZ006>009-017-018-025>027-300500-
NORTHEAST INDIANA

CITY           SKY/WX    TMP DP  RH WIND       PRES   REMARKS
ANGOLA *+        N/A     63  55  77 CALM      30.01S
AUBURN +       CLEAR     64  55  72 CALM      30.02S
FORT WAYNE     CLOUDY    70  57  63 CALM      30.02R
HUNTINGTON +   CLOUDY   N/A N/A N/A CALM      30.02R

$$

INZ028-029-035-036-043>045-051>053-300500-
WEST CENTRAL INDIANA

CITY           SKY/WX    TMP DP  RH WIND       PRES   REMARKS
CRAWFORDSVL +  CLEAR     66  56  70 CALM      30.04S
GREENCASTLE +  CLEAR     66  59  77 CALM      30.05R
LAFAYETTE      CLEAR     68  56  65 W3        30.02R
TERRE HAUTE    PTCLDY    71  58  63 SW3       30.05R

$$

INZ030>032-037>040-046>048-054>057-064-065-300500-
CENTRAL INDIANA

CITY           SKY/WX    TMP DP  RH WIND       PRES   REMARKS
CP ATTERBURY + CLEAR     64  63  94 W6        30.04R
FISHERS *+     PTCLDY    64  59  82 CALM      30.04R
FRANKFORT +      N/A     66  47  48 W6        30.05R
GREENWOOD *+   CLEAR     68  64  88 CALM      30.04R
INDIANAPOLIS   PTCLDY    70  59  68 W5        30.02R
-EAGLE CREEK   PTCLDY    71  58  63 W3        30.03R
KOKOMO *+      CLOUDY    66  54  63 W7        30.02R
MARION +       PTCLDY    69  54  57 NW3       30.03R
SHELBYVILLE    CLEAR     70  64  81 W6        30.02R
ZIONSVILLE +   PTCLDY    68  55  64 CALM      30.05R

$$

INZ033-034-041-042-049-050-058-059-300500-
EAST CENTRAL INDIANA

CITY           SKY/WX    TMP DP  RH WIND       PRES   REMARKS
MUNCIE         CLEAR     72  54  53 W3        30.02R

$$

INZ060-061-067>069-081>083-085>088-300500-
SOUTHWEST INDIANA

CITY           SKY/WX    TMP DP  RH WIND       PRES   REMARKS
EVANSVILLE     CLOUDY    69  65  86 CALM      30.05S
HUNTINGBURG *+ MOCLDY    66  63  88 CALM      30.04F
WASHINGTON +   PTCLDY    70  63  77 W5        30.03S

$$

INZ062-063-066-070>080-084-089>092-300500-
SOUTH CENTRAL AND SOUTHEAST INDIANA

CITY           SKY/WX    TMP DP  RH WIND       PRES   REMARKS
BEDFORD +      CLEAR     68  68 100 SW3       30.04
BLOOMINGTON    CLEAR     69  62  78 CALM      30.04R
MADISON *+     CLEAR     68  64  88 CALM      30.06R
NORTH VERNON + FOG      N/A N/A N/A CALM      30.04R VSB 1/2
SEYMOUR +      CLEAR     68  64  88 CALM      30.03R

$$





USA.gov is the U.S. government's official web portal to all federal, state and local government web resources and services.